Time,TemperatureF,DewpointF,PressureIn,WindDirection,WindDirectionDegrees,WindSpeedMPH,WindSpeedGustMPH,Humidity,HourlyPrecipIn,Conditions,Clouds,dailyrainin,SoftwareType,DateUTC
2013-04-05 00:00:00,36.8,35.8,30.00,East,95,0.0,0.0,96,0.00,,,0.45,WeatherCatV1.11B39,2013-04-05 04:00:00,
2013-04-05 00:01:00,36.8,35.8,30.00,East,95,0.0,0.0,96,0.00,,,0.00,WeatherCatV1.11B39,2013-04-05 04:01:00,
2013-04-05 00:04:00,36.9,35.9,30.00,East,95,0.0,0.0,96,0.00,,,0.00,WeatherCatV1.11B39,2013-04-05 04:04:00,
2013-04-05 00:06:00,36.9,35.9,30.00,East,95,0.0,0.0,96,0.00,,,0.00,WeatherCatV1.11B39,2013-04-05 04:06:00,
2013-04-05 00:11:00,36.9,35.9,29.99,East,95,0.0,0.0,96,0.00,,,0.00,WeatherCatV1.11B39,2013-04-05 04:11:00,
2013-04-05 00:16:00,37.0,36.0,29.99,East,95,0.0,0.0,96,0.00,,,0.00,WeatherCatV1.11B39,2013-04-05 04:16:00,
2013-04-05 00:21:00,37.0,36.0,29.99,East,95,0.0,0.0,96,0.00,,,0.00,WeatherCatV1.11B39,2013-04-05 04:21:00,
2013-04-05 00:26:00,36.9,35.9,29.99,East,95,0.0,0.0,96,0.00,,,0.00,WeatherCatV1.11B39,2013-04-05 04:26:00,
2013-04-05 00:31:00,36.8,35.8,30.00,East,95,0.0,0.0,96,0.00,,,0.00,WeatherCatV1.11B39,2013-04-05 04:31:00,
2013-04-05 00:36:00,36.7,35.4,29.99,East,95,0.0,0.0,95,0.00,,,0.00,WeatherCatV1.11B39,2013-04-05 04:36:00,
2013-04-05 00:41:00,36.7,35.7,30.00,East,95,0.0,0.0,96,0.00,,,0.00,WeatherCatV1.11B39,2013-04-05 04:41:00,
2013-04-05 00:46:00,36.8,35.8,30.00,East,95,0.0,0.0,96,0.00,,,0.00,WeatherCatV1.11B39,2013-04-05 04:46:00,
2013-04-05 00:51:00,36.8,35.5,29.99,East,95,0.0,0.0,95,0.00,,,0.00,WeatherCatV1.11B39,2013-04-05 04:51:00,
2013-04-05 00:56:00,36.9,35.9,29.99,East,95,0.0,0.0,96,0.00,,,0.00,WeatherCatV1.11B39,2013-04-05 04:56:00,
2013-04-05 01:01:00,37.0,36.0,30.00,East,95,0.0,0.0,96,0.00,,,0.00,WeatherCatV1.11B39,2013-04-05 05:01:00,
2013-04-05 01:06:00,37.0,36.0,29.99,East,95,0.0,0.0,96,0.00,,,0.00,WeatherCatV1.11B39,2013-04-05 05:06:00,
2013-04-05 01:11:00,36.9,35.9,29.99,East,95,0.0,0.0,96,0.00,,,0.00,WeatherCatV1.11B39,2013-04-05 05:11:00,
2013-04-05 01:16:00,36.9,35.9,29.99,East,95,0.0,0.0,96,0.00,,,0.00,WeatherCatV1.11B39,2013-04-05 05:16:00,
2013-04-05 01:21:00,36.9,35.9,29.99,East,95,0.0,0.0,96,0.00,,,0.00,WeatherCatV1.11B39,2013-04-05 05:21:00,
2013-04-05 01:26:00,37.0,36.0,29.99,East,95,0.0,0.0,96,0.00,,,0.00,WeatherCatV1.11B39,2013-04-05 05:26:00,
2013-04-05 01:31:00,37.1,36.1,29.99,East,95,0.0,0.0,96,0.00,,,0.00,WeatherCatV1.11B39,2013-04-05 05:31:00,
2013-04-05 01:36:00,37.0,36.0,29.99,East,95,0.0,0.0,96,0.00,,,0.00,WeatherCatV1.11B39,2013-04-05 05:36:00,
2013-04-05 01:41:00,37.1,36.1,29.99,East,95,0.0,0.0,96,0.00,,,0.00,WeatherCatV1.11B39,2013-04-05 05:41:00,
2013-04-05 01:46:00,37.1,36.1,29.99,East,95,0.0,0.0,96,0.00,,,0.00,WeatherCatV1.11B39,2013-04-05 05:46:00,
2013-04-05 01:51:00,37.2,36.2,29.99,East,95,0.0,0.0,96,0.00,,,0.00,WeatherCatV1.11B39,2013-04-05 05:51:00,
2013-04-05 01:56:00,37.2,36.2,29.99,East,95,0.0,0.0,96,0.00,,,0.00,WeatherCatV1.11B39,2013-04-05 05:56:00,
2013-04-05 02:01:00,37.2,36.2,29.99,East,95,0.0,0.0,96,0.00,,,0.00,WeatherCatV1.11B39,2013-04-05 06:01:00,
2013-04-05 02:06:00,37.2,36.2,29.99,East,95,0.0,0.0,96,0.00,,,0.00,WeatherCatV1.11B39,2013-04-05 06:06:00,
2013-04-05 02:11:00,37.2,36.2,29.99,East,95,0.0,0.0,96,0.00,,,0.00,WeatherCatV1.11B39,2013-04-05 06:11:00,
2013-04-05 02:16:00,37.2,36.2,29.99,East,95,0.0,0.0,96,0.00,,,0.00,WeatherCatV1.11B39,2013-04-05 06:16:00,
2013-04-05 02:21:00,37.1,36.1,29.99,East,95,0.0,0.0,96,0.00,,,0.00,WeatherCatV1.11B39,2013-04-05 06:21:00,
2013-04-05 02:26:00,37.1,36.1,29.99,East,95,0.0,0.0,96,0.00,,,0.00,WeatherCatV1.11B39,2013-04-05 06:26:00,
2013-04-05 02:31:00,37.1,36.1,30.00,East,95,0.0,0.0,96,0.00,,,0.00,WeatherCatV1.11B39,2013-04-05 06:31:00,
2013-04-05 02:36:00,37.2,36.2,29.99,East,95,0.0,0.0,96,0.00,,,0.00,WeatherCatV1.11B39,2013-04-05 06:36:00,
2013-04-05 02:41:00,37.3,36.3,30.00,East,95,0.0,0.0,96,0.00,,,0.00,WeatherCatV1.11B39,2013-04-05 06:41:00,
2013-04-05 02:46:00,37.4,36.4,29.99,East,95,0.0,0.0,96,0.00,,,0.00,WeatherCatV1.11B39,2013-04-05 06:46:00,
2013-04-05 02:51:00,37.4,36.4,29.99,East,95,0.0,0.0,96,0.00,,,0.00,WeatherCatV1.11B39,2013-04-05 06:51:00,
2013-04-05 02:56:00,37.4,36.4,29.99,East,95,0.0,0.0,96,0.00,,,0.00,WeatherCatV1.11B39,2013-04-05 06:56:00,
2013-04-05 03:01:00,37.5,36.5,29.99,East,95,0.0,0.0,96,0.00,,,0.00,WeatherCatV1.11B39,2013-04-05 07:01:00,
2013-04-05 03:06:00,37.5,36.5,29.99,East,95,0.0,0.0,96,0.00,,,0.00,WeatherCatV1.11B39,2013-04-05 07:06:00,
2013-04-05 03:11:00,37.5,36.5,29.99,East,95,0.0,0.0,96,0.00,,,0.00,WeatherCatV1.11B39,2013-04-05 07:11:00,
2013-04-05 03:16:00,37.5,36.5,29.99,East,95,0.0,0.0,96,0.00,,,0.00,WeatherCatV1.11B39,2013-04-05 07:16:00,
2013-04-05 03:21:00,37.5,36.5,30.00,East,95,0.0,0.0,96,0.00,,,0.00,WeatherCatV1.11B39,2013-04-05 07:21:00,
2013-04-05 03:26:00,37.5,36.5,29.99,East,95,0.0,0.0,96,0.00,,,0.00,WeatherCatV1.11B39,2013-04-05 07:26:00,
2013-04-05 03:31:00,37.5,36.5,29.99,East,95,0.0,0.0,96,0.00,,,0.00,WeatherCatV1.11B39,2013-04-05 07:31:00,
2013-04-05 03:36:00,37.5,36.5,30.00,East,95,0.0,0.0,96,0.00,,,0.00,WeatherCatV1.11B39,2013-04-05 07:36:00,
2013-04-05 03:41:00,37.5,36.5,29.99,East,95,0.0,0.0,96,0.00,,,0.00,WeatherCatV1.11B39,2013-04-05 07:41:00,
2013-04-05 03:46:00,37.5,36.5,30.00,East,95,0.0,0.0,96,0.00,,,0.00,WeatherCatV1.11B39,2013-04-05 07:46:00,
2013-04-05 03:51:00,37.6,36.6,30.00,East,95,0.0,0.0,96,0.00,,,0.00,WeatherCatV1.11B39,2013-04-05 07:51:00,
2013-04-05 03:56:00,37.6,36.6,30.00,East,95,0.0,0.0,96,0.00,,,0.00,WeatherCatV1.11B39,2013-04-05 07:56:00,
2013-04-05 04:01:00,37.6,36.6,30.00,East,95,0.0,0.0,96,0.00,,,0.00,WeatherCatV1.11B39,2013-04-05 08:01:00,
2013-04-05 04:06:00,37.7,36.7,30.00,East,95,0.0,0.0,96,0.00,,,0.00,WeatherCatV1.11B39,2013-04-05 08:06:00,
2013-04-05 04:11:00,37.6,36.6,30.00,East,95,0.0,0.0,96,0.00,,,0.00,WeatherCatV1.11B39,2013-04-05 08:11:00,
2013-04-05 04:16:00,37.6,36.6,30.00,East,95,0.0,0.0,96,0.00,,,0.00,WeatherCatV1.11B39,2013-04-05 08:16:00,
2013-04-05 04:21:00,37.6,36.6,30.00,East,95,0.0,0.0,96,0.00,,,0.00,WeatherCatV1.11B39,2013-04-05 08:21:00,
2013-04-05 04:26:00,37.5,36.5,30.00,ESE,122,0.0,0.0,96,0.00,,,0.00,WeatherCatV1.11B39,2013-04-05 08:26:00,
2013-04-05 04:31:00,37.5,36.5,30.00,ESE,122,0.0,0.0,96,0.00,,,0.00,WeatherCatV1.11B39,2013-04-05 08:31:00,
2013-04-05 04:36:00,37.4,36.4,30.00,ESE,122,0.0,0.0,96,0.00,,,0.00,WeatherCatV1.11B39,2013-04-05 08:36:00,
2013-04-05 04:41:00,37.4,36.4,29.99,SE,133,0.0,0.0,96,0.00,,,0.00,WeatherCatV1.11B39,2013-04-05 08:41:00,
2013-04-05 04:46:00,37.3,36.3,30.00,SE,131,0.0,0.0,96,0.00,,,0.00,WeatherCatV1.11B39,2013-04-05 08:46:00,
2013-04-05 04:51:00,37.2,36.2,30.00,SE,131,0.0,1.0,96,0.00,,,0.00,WeatherCatV1.11B39,2013-04-05 08:51:00,
2013-04-05 04:56:00,37.2,36.2,29.99,SE,131,0.0,0.0,96,0.00,,,0.00,WeatherCatV1.11B39,2013-04-05 08:56:00,
2013-04-05 05:01:00,37.2,36.2,29.99,ESE,105,0.0,0.0,96,0.00,,,0.00,WeatherCatV1.11B39,2013-04-05 09:01:00,
2013-04-05 05:06:00,37.2,36.2,30.00,ESE,105,0.0,0.0,96,0.00,,,0.00,WeatherCatV1.11B39,2013-04-05 09:06:00,
2013-04-05 05:11:00,37.2,36.2,30.00,ESE,119,0.0,0.0,96,0.00,,,0.00,WeatherCatV1.11B39,2013-04-05 09:11:00,
2013-04-05 05:16:00,37.2,36.2,30.00,ESE,122,0.0,0.0,96,0.00,,,0.00,WeatherCatV1.11B39,2013-04-05 09:16:00,
2013-04-05 05:21:00,37.3,36.5,30.00,ESE,122,0.0,0.0,97,0.00,,,0.00,WeatherCatV1.11B39,2013-04-05 09:21:00,
2013-04-05 05:26:00,37.3,36.5,30.00,ESE,122,0.0,0.0,97,0.00,,,0.00,WeatherCatV1.11B39,2013-04-05 09:26:00,
2013-04-05 05:31:00,37.2,36.2,30.00,ESE,122,0.0,0.0,96,0.00,,,0.00,WeatherCatV1.11B39,2013-04-05 09:31:00,
2013-04-05 05:36:00,37.3,36.5,30.00,ESE,122,0.0,0.0,97,0.00,,,0.00,WeatherCatV1.11B39,2013-04-05 09:36:00,
2013-04-05 05:41:00,37.3,36.3,30.00,ESE,113,0.0,0.0,96,0.00,,,0.00,WeatherCatV1.11B39,2013-04-05 09:41:00,
2013-04-05 05:46:00,37.3,36.5,30.01,ESE,113,0.0,0.0,97,0.00,,,0.00,WeatherCatV1.11B39,2013-04-05 09:46:00,
2013-04-05 05:51:00,37.3,36.5,30.01,WSW,238,0.0,2.0,97,0.00,,,0.00,WeatherCatV1.11B39,2013-04-05 09:51:00,
2013-04-05 05:56:00,37.4,36.4,30.00,SE,136,0.0,3.0,96,0.00,,,0.00,WeatherCatV1.11B39,2013-04-05 09:56:00,
2013-04-05 06:01:00,37.4,36.4,30.00,ESE,118,0.0,0.0,96,0.00,,,0.00,WeatherCatV1.11B39,2013-04-05 10:01:00,
2013-04-05 06:06:00,37.4,36.4,30.00,ESE,113,0.0,3.0,96,0.00,,,0.00,WeatherCatV1.11B39,2013-04-05 10:06:00,
2013-04-05 06:11:00,37.4,36.4,30.00,SE,129,4.0,4.0,96,0.00,,,0.00,WeatherCatV1.11B39,2013-04-05 10:11:00,
2013-04-05 06:16:00,37.5,36.5,30.00,West,267,1.0,3.0,96,0.00,,,0.00,WeatherCatV1.11B39,2013-04-05 10:16:00,
2013-04-05 06:21:00,37.5,36.5,30.00,ESE,112,0.0,1.0,96,0.00,,,0.00,WeatherCatV1.11B39,2013-04-05 10:21:00,
2013-04-05 06:26:00,37.6,36.6,30.00,ESE,110,0.0,2.0,96,0.00,,,0.00,WeatherCatV1.11B39,2013-04-05 10:26:00,
2013-04-05 06:31:00,37.5,36.5,30.00,East,94,0.0,1.0,96,0.00,,,0.00,WeatherCatV1.11B39,2013-04-05 10:31:00,
2013-04-05 06:36:00,37.5,36.5,30.00,SSE,156,1.0,4.0,96,0.00,,,0.00,WeatherCatV1.11B39,2013-04-05 10:36:00,
2013-04-05 06:41:00,37.5,36.5,30.01,SE,138,0.0,3.0,96,0.00,,,0.00,WeatherCatV1.11B39,2013-04-05 10:41:00,
2013-04-05 06:46:00,37.5,36.5,30.01,ESE,114,0.0,4.0,96,0.00,,,0.00,WeatherCatV1.11B39,2013-04-05 10:46:00,
2013-04-05 06:51:00,37.5,36.5,30.02,SE,131,0.0,2.0,96,0.00,,,0.00,WeatherCatV1.11B39,2013-04-05 10:51:00,
2013-04-05 06:56:00,37.6,36.6,30.02,SSE,155,2.0,2.0,96,0.00,,,0.00,WeatherCatV1.11B39,2013-04-05 10:56:00,
2013-04-05 07:01:00,37.6,36.6,30.02,East,99,0.0,5.0,96,0.00,,,0.00,WeatherCatV1.11B39,2013-04-05 11:01:00,
2013-04-05 07:06:00,37.6,36.6,30.02,East,97,3.0,3.0,96,0.00,,,0.00,WeatherCatV1.11B39,2013-04-05 11:06:00,
2013-04-05 07:11:00,37.7,36.7,30.02,SE,127,0.0,1.0,96,0.00,,,0.00,WeatherCatV1.11B39,2013-04-05 11:11:00,
2013-04-05 07:16:00,37.7,36.7,30.03,SE,125,0.0,3.0,96,0.00,,,0.00,WeatherCatV1.11B39,2013-04-05 11:16:00,
2013-04-05 07:21:00,37.7,36.7,30.03,ENE,75,0.0,1.0,96,0.00,,,0.00,WeatherCatV1.11B39,2013-04-05 11:21:00,
2013-04-05 07:26:00,37.7,36.7,30.03,SE,136,1.0,6.0,96,0.00,,,0.00,WeatherCatV1.11B39,2013-04-05 11:26:00,
2013-04-05 07:31:00,37.7,36.7,30.04,East,95,0.0,4.0,96,0.00,,,0.00,WeatherCatV1.11B39,2013-04-05 11:31:00,
2013-04-05 07:36:00,37.8,36.8,30.04,ESE,103,0.0,1.0,96,0.00,,,0.00,WeatherCatV1.11B39,2013-04-05 11:36:00,
2013-04-05 07:41:00,37.8,36.8,30.04,SE,145,0.0,0.0,96,0.00,,,0.00,WeatherCatV1.11B39,2013-04-05 11:41:00,
2013-04-05 07:46:00,37.8,36.8,30.04,ESE,109,0.0,0.0,96,0.00,,,0.00,WeatherCatV1.11B39,2013-04-05 11:46:00,
2013-04-05 07:51:00,37.8,36.8,30.05,SE,134,1.0,3.0,96,0.00,,,0.00,WeatherCatV1.11B39,2013-04-05 11:51:00,
2013-04-05 07:56:00,37.8,36.8,30.05,SE,144,0.0,4.0,96,0.00,,,0.00,WeatherCatV1.11B39,2013-04-05 11:56:00,
2013-04-05 08:01:00,37.9,36.9,30.05,SE,142,0.0,0.0,96,0.00,,,0.00,WeatherCatV1.11B39,2013-04-05 12:01:00,
2013-04-05 08:06:00,37.9,36.9,30.06,SW,215,0.0,2.0,96,0.00,,,0.00,WeatherCatV1.11B39,2013-04-05 12:06:00,
2013-04-05 08:11:00,38.0,36.7,30.06,SE,131,0.0,1.0,95,0.00,,,0.00,WeatherCatV1.11B39,2013-04-05 12:11:00,
2013-04-05 08:16:00,38.0,37.0,30.06,East,94,0.0,1.0,96,0.00,,,0.00,WeatherCatV1.11B39,2013-04-05 12:16:00,
2013-04-05 08:21:00,38.1,37.1,30.06,ENE,76,0.0,0.0,96,0.00,,,0.00,WeatherCatV1.11B39,2013-04-05 12:21:00,
2013-04-05 08:26:00,38.1,37.1,30.06,East,82,0.0,0.0,96,0.00,,,0.00,WeatherCatV1.11B39,2013-04-05 12:26:00,
2013-04-05 08:31:00,38.2,37.2,30.06,SE,129,2.0,2.0,96,0.00,,,0.00,WeatherCatV1.11B39,2013-04-05 12:31:00,
2013-04-05 08:36:00,38.2,37.2,30.06,SE,143,0.0,1.0,96,0.00,,,0.00,WeatherCatV1.11B39,2013-04-05 12:36:00,
2013-04-05 08:41:00,38.2,37.2,30.06,ESE,115,0.0,2.0,96,0.00,,,0.00,WeatherCatV1.11B39,2013-04-05 12:41:00,
2013-04-05 08:46:00,38.3,37.3,30.07,ESE,104,0.0,2.0,96,0.00,,,0.00,WeatherCatV1.11B39,2013-04-05 12:46:00,
2013-04-05 08:51:00,38.3,37.3,30.07,ESE,122,0.0,1.0,96,0.00,,,0.00,WeatherCatV1.11B39,2013-04-05 12:51:00,
2013-04-05 08:56:00,38.4,37.4,30.06,ENE,73,0.0,1.0,96,0.00,,,0.00,WeatherCatV1.11B39,2013-04-05 12:56:00,
2013-04-05 09:01:00,38.5,37.5,30.07,South,179,0.0,4.0,96,0.00,,,0.00,WeatherCatV1.11B39,2013-04-05 13:01:00,
2013-04-05 09:06:00,38.5,37.5,30.07,ESE,110,0.0,0.0,96,0.00,,,0.00,WeatherCatV1.11B39,2013-04-05 13:06:00,
2013-04-05 09:11:00,38.5,37.5,30.07,NNW,345,0.0,6.0,96,0.00,,,0.00,WeatherCatV1.11B39,2013-04-05 13:11:00,
2013-04-05 09:16:00,38.5,37.5,30.07,NE,55,1.0,1.0,96,0.00,,,0.00,WeatherCatV1.11B39,2013-04-05 13:16:00,
2013-04-05 09:21:00,38.6,37.6,30.07,SE,127,0.0,0.0,96,0.00,,,0.00,WeatherCatV1.11B39,2013-04-05 13:21:00,
2013-04-05 09:26:00,38.7,37.7,30.07,ESE,110,1.0,1.0,96,0.00,,,0.00,WeatherCatV1.11B39,2013-04-05 13:26:00,
2013-04-05 09:31:00,38.7,37.7,30.07,ESE,110,0.0,1.0,96,0.00,,,0.00,WeatherCatV1.11B39,2013-04-05 13:31:00,
2013-04-05 09:36:00,38.7,37.7,30.07,ESE,103,0.0,2.0,96,0.00,,,0.00,WeatherCatV1.11B39,2013-04-05 13:36:00,
2013-04-05 09:41:00,38.8,37.8,30.07,ESE,121,1.0,3.0,96,0.00,,,0.00,WeatherCatV1.11B39,2013-04-05 13:41:00,
2013-04-05 09:46:00,38.9,37.9,30.08,ESE,108,1.0,1.0,96,0.00,,,0.00,WeatherCatV1.11B39,2013-04-05 13:46:00,
2013-04-05 09:51:00,39.1,37.8,30.08,SE,124,0.0,1.0,95,0.00,,,0.00,WeatherCatV1.11B39,2013-04-05 13:51:00,
2013-04-05 09:56:00,39.2,37.9,30.08,SSW,211,0.0,2.0,95,0.00,,,0.00,WeatherCatV1.11B39,2013-04-05 13:56:00,
2013-04-05 10:01:00,39.3,38.0,30.08,ESE,105,0.0,2.0,95,0.00,,,0.00,WeatherCatV1.11B39,2013-04-05 14:01:00,
2013-04-05 10:06:00,39.3,38.0,30.08,East,98,0.0,0.0,95,0.00,,,0.00,WeatherCatV1.11B39,2013-04-05 14:06:00,
2013-04-05 10:11:00,39.4,38.1,30.08,SSE,148,1.0,1.0,95,0.00,,,0.00,WeatherCatV1.11B39,2013-04-05 14:11:00,
2013-04-05 10:16:00,39.5,38.2,30.08,SE,128,0.0,0.0,95,0.00,,,0.00,WeatherCatV1.11B39,2013-04-05 14:16:00,
2013-04-05 10:21:00,39.7,38.4,30.08,ESE,112,0.0,2.0,95,0.00,,,0.00,WeatherCatV1.11B39,2013-04-05 14:21:00,
2013-04-05 10:26:00,39.7,38.4,30.08,SE,129,1.0,2.0,95,0.00,,,0.00,WeatherCatV1.11B39,2013-04-05 14:26:00,
2013-04-05 10:32:00,39.7,38.4,30.09,SE,127,0.0,0.0,95,0.00,,,0.00,WeatherCatV1.11B39,2013-04-05 14:32:00,
2013-04-05 10:37:00,39.8,38.5,30.09,SE,132,0.0,0.0,95,0.00,,,0.00,WeatherCatV1.11B39,2013-04-05 14:37:00,
2013-04-05 10:42:00,39.8,38.5,30.09,ESE,108,1.0,1.0,95,0.00,,,0.00,WeatherCatV1.11B39,2013-04-05 14:42:00,
2013-04-05 10:47:00,39.8,38.5,30.09,SE,135,0.0,3.0,95,0.00,,,0.00,WeatherCatV1.11B39,2013-04-05 14:47:00,
2013-04-05 10:52:00,39.9,38.6,30.09,ENE,66,0.0,1.0,95,0.00,,,0.00,WeatherCatV1.11B39,2013-04-05 14:52:00,
2013-04-05 10:57:00,40.0,38.7,30.10,SE,136,0.0,1.0,95,0.00,,,0.00,WeatherCatV1.11B39,2013-04-05 14:57:00,
2013-04-05 11:02:00,40.0,38.7,30.09,SSW,210,0.0,0.0,95,0.00,,,0.00,WeatherCatV1.11B39,2013-04-05 15:02:00,
2013-04-05 11:07:00,40.1,38.8,30.10,East,98,0.0,1.0,95,0.00,,,0.00,WeatherCatV1.11B39,2013-04-05 15:07:00,
2013-04-05 11:12:00,40.3,39.0,30.10,SE,136,0.0,0.0,95,0.00,,,0.00,WeatherCatV1.11B39,2013-04-05 15:12:00,
2013-04-05 11:17:00,40.5,38.9,30.10,ESE,113,0.0,1.0,94,0.00,,,0.00,WeatherCatV1.11B39,2013-04-05 15:17:00,
2013-04-05 11:22:00,40.8,39.5,30.10,ESE,121,0.0,2.0,95,0.00,,,0.00,WeatherCatV1.11B39,2013-04-05 15:22:00,
2013-04-05 11:27:00,41.0,39.1,30.09,ESE,119,0.0,3.0,93,0.00,,,0.00,WeatherCatV1.11B39,2013-04-05 15:27:00,
2013-04-05 11:32:00,41.3,39.7,30.09,ESE,120,0.0,1.0,94,0.00,,,0.00,WeatherCatV1.11B39,2013-04-05 15:32:00,
2013-04-05 11:37:00,41.8,40.2,30.09,ESE,120,0.0,0.0,94,0.00,,,0.00,WeatherCatV1.11B39,2013-04-05 15:37:00,
2013-04-05 11:42:00,42.2,40.3,30.09,SE,130,0.0,1.0,93,0.00,,,0.00,WeatherCatV1.11B39,2013-04-05 15:42:00,
2013-04-05 11:47:00,42.6,40.4,30.09,East,99,0.0,1.0,92,0.00,,,0.00,WeatherCatV1.11B39,2013-04-05 15:47:00,
2013-04-05 11:52:00,42.8,40.6,30.09,SE,125,0.0,0.0,92,0.00,,,0.00,WeatherCatV1.11B39,2013-04-05 15:52:00,
2013-04-05 11:57:00,42.9,40.5,30.09,ESE,109,1.0,1.0,91,0.00,,,0.00,WeatherCatV1.11B39,2013-04-05 15:57:00,
2013-04-05 12:02:00,43.0,40.3,30.09,ESE,115,0.0,4.0,90,0.00,,,0.00,WeatherCatV1.11B39,2013-04-05 16:02:00,
2013-04-05 12:07:00,43.2,40.5,30.09,ESE,115,0.0,0.0,90,0.00,,,0.00,WeatherCatV1.11B39,2013-04-05 16:07:00,
2013-04-05 12:12:00,43.5,40.2,30.09,East,98,0.0,1.0,88,0.00,,,0.00,WeatherCatV1.11B39,2013-04-05 16:12:00,
2013-04-05 12:17:00,43.9,41.2,30.09,SE,146,0.0,1.0,90,0.00,,,0.00,WeatherCatV1.11B39,2013-04-05 16:17:00,
2013-04-05 12:22:00,44.4,41.1,30.09,SE,135,0.0,2.0,88,0.00,,,0.00,WeatherCatV1.11B39,2013-04-05 16:22:00,
2013-04-05 12:27:00,44.8,41.8,30.08,SE,135,0.0,0.0,89,0.00,,,0.00,WeatherCatV1.11B39,2013-04-05 16:27:00,
2013-04-05 12:32:00,45.1,41.5,30.08,SE,131,0.0,3.0,87,0.00,,,0.00,WeatherCatV1.11B39,2013-04-05 16:32:00,
2013-04-05 12:37:00,45.7,42.1,30.08,SE,125,1.0,4.0,87,0.00,,,0.00,WeatherCatV1.11B39,2013-04-05 16:37:00,
2013-04-05 12:42:00,45.8,41.5,30.08,SE,143,0.0,2.0,85,0.00,,,0.00,WeatherCatV1.11B39,2013-04-05 16:42:00,
2013-04-05 12:47:00,46.0,42.3,30.08,SSW,210,4.0,4.0,87,0.00,,,0.00,WeatherCatV1.11B39,2013-04-05 16:47:00,
2013-04-05 12:52:00,46.1,41.8,30.08,South,176,2.0,2.0,85,0.00,,,0.00,WeatherCatV1.11B39,2013-04-05 16:52:00,
2013-04-05 12:57:00,46.2,41.3,30.08,SE,126,0.0,2.0,83,0.00,,,0.00,WeatherCatV1.11B39,2013-04-05 16:57:00,
2013-04-05 13:02:00,46.2,41.3,30.08,ESE,120,0.0,8.0,83,0.00,,,0.00,WeatherCatV1.11B39,2013-04-05 17:02:00,
2013-04-05 13:07:00,46.1,41.2,30.08,SE,141,0.0,1.0,83,0.00,,,0.00,WeatherCatV1.11B39,2013-04-05 17:07:00,
2013-04-05 13:12:00,46.3,41.4,30.07,SE,125,1.0,1.0,83,0.00,,,0.00,WeatherCatV1.11B39,2013-04-05 17:12:00,
2013-04-05 13:17:00,46.8,41.9,30.07,ESE,113,1.0,2.0,83,0.00,,,0.00,WeatherCatV1.11B39,2013-04-05 17:17:00,
2013-04-05 13:22:00,47.6,42.1,30.07,NE,46,0.0,3.0,81,0.00,,,0.00,WeatherCatV1.11B39,2013-04-05 17:22:00,
2013-04-05 13:27:00,48.1,42.5,30.07,SSE,154,0.0,2.0,81,0.00,,,0.00,WeatherCatV1.11B39,2013-04-05 17:27:00,
2013-04-05 13:32:00,48.2,42.0,30.07,NE,44,1.0,2.0,79,0.00,,,0.00,WeatherCatV1.11B39,2013-04-05 17:32:00,
2013-04-05 13:37:00,48.5,41.6,30.06,East,84,0.0,1.0,77,0.00,,,0.01,WeatherCatV1.11B39,2013-04-05 17:37:00,
2013-04-05 13:42:00,48.9,41.7,30.06,SW,218,0.0,5.0,76,0.00,,,0.01,WeatherCatV1.11B39,2013-04-05 17:42:00,
2013-04-05 13:47:00,48.8,41.6,30.06,East,96,0.0,4.0,76,0.00,,,0.01,WeatherCatV1.11B39,2013-04-05 17:47:00,
2013-04-05 13:52:00,49.3,42.4,30.06,South,169,1.0,3.0,77,0.00,,,0.01,WeatherCatV1.11B39,2013-04-05 17:52:00,
2013-04-05 13:57:00,49.6,42.3,30.06,East,96,0.0,4.0,76,0.00,,,0.01,WeatherCatV1.11B39,2013-04-05 17:57:00,
2013-04-05 14:02:00,49.7,41.8,30.05,NNW,335,0.0,1.0,74,0.00,,,0.01,WeatherCatV1.11B39,2013-04-05 18:02:00,
2013-04-05 14:07:00,50.7,42.4,30.05,ESE,119,0.0,2.0,73,0.00,,,0.01,WeatherCatV1.11B39,2013-04-05 18:07:00,
2013-04-05 14:12:00,52.3,43.2,30.05,ENE,60,1.0,4.0,71,0.00,,,0.01,WeatherCatV1.11B39,2013-04-05 18:12:00,
2013-04-05 14:17:00,52.9,42.6,30.05,ENE,68,0.0,1.0,68,0.00,,,0.01,WeatherCatV1.11B39,2013-04-05 18:17:00,
2013-04-05 14:22:00,54.0,41.3,30.05,ENE,65,1.0,3.0,62,0.00,,,0.01,WeatherCatV1.11B39,2013-04-05 18:22:00,
2013-04-05 14:27:00,53.8,41.1,30.05,ESE,121,0.0,2.0,62,0.00,,,0.01,WeatherCatV1.11B39,2013-04-05 18:27:00,
2013-04-05 14:32:00,53.7,41.8,30.05,South,169,3.0,3.0,64,0.00,,,0.01,WeatherCatV1.11B39,2013-04-05 18:32:00,
2013-04-05 14:37:00,53.5,41.6,30.05,South,186,1.0,1.0,64,0.00,,,0.01,WeatherCatV1.11B39,2013-04-05 18:37:00,
2013-04-05 14:42:00,53.4,40.7,30.05,ESE,115,0.0,7.0,62,0.00,,,0.01,WeatherCatV1.11B39,2013-04-05 18:42:00,
2013-04-05 14:47:00,53.6,41.7,30.05,SSE,149,1.0,4.0,64,0.00,,,0.01,WeatherCatV1.11B39,2013-04-05 18:47:00,
2013-04-05 14:52:00,54.8,41.2,30.04,East,85,1.0,2.0,60,0.00,,,0.01,WeatherCatV1.11B39,2013-04-05 18:52:00,
2013-04-05 14:57:00,55.2,42.4,30.05,SE,135,1.0,1.0,62,0.00,,,0.01,WeatherCatV1.11B39,2013-04-05 18:57:00,
2013-04-05 15:02:00,55.9,41.3,30.04,NE,35,1.0,1.0,58,0.00,,,0.01,WeatherCatV1.11B39,2013-04-05 19:02:00,
2013-04-05 15:07:00,56.3,39.9,30.04,ENE,70,0.0,4.0,54,0.00,,,0.01,WeatherCatV1.11B39,2013-04-05 19:07:00,
2013-04-05 15:12:00,56.5,40.5,30.04,SSE,160,2.0,3.0,55,0.00,,,0.01,WeatherCatV1.11B39,2013-04-05 19:12:00,
2013-04-05 15:17:00,56.1,39.2,30.04,East,79,0.0,3.0,53,0.00,,,0.01,WeatherCatV1.11B39,2013-04-05 19:17:00,
2013-04-05 15:22:00,56.1,40.6,30.04,ESE,105,0.0,4.0,56,0.00,,,0.01,WeatherCatV1.11B39,2013-04-05 19:22:00,
2013-04-05 15:27:00,56.8,41.3,30.04,ESE,105,0.0,3.0,56,0.00,,,0.01,WeatherCatV1.11B39,2013-04-05 19:27:00,
2013-04-05 15:32:00,57.0,38.5,30.04,ESE,111,0.0,1.0,50,0.00,,,0.01,WeatherCatV1.11B39,2013-04-05 19:32:00,
2013-04-05 15:37:00,56.6,38.2,30.04,SSE,150,3.0,4.0,50,0.00,,,0.01,WeatherCatV1.11B39,2013-04-05 19:37:00,
2013-04-05 15:42:00,56.4,40.9,30.04,ESE,116,1.0,3.0,56,0.00,,,0.01,WeatherCatV1.11B39,2013-04-05 19:42:00,
2013-04-05 15:47:00,57.0,40.0,30.03,SSE,163,1.0,1.0,53,0.00,,,0.01,WeatherCatV1.11B39,2013-04-05 19:47:00,
2013-04-05 15:52:00,57.4,37.9,30.04,SE,135,0.0,5.0,48,0.00,,,0.01,WeatherCatV1.11B39,2013-04-05 19:52:00,
2013-04-05 15:57:00,56.7,38.3,30.03,SE,131,0.0,1.0,50,0.00,,,0.01,WeatherCatV1.11B39,2013-04-05 19:57:00,
2013-04-05 16:02:00,56.7,36.2,30.04,SE,125,0.0,1.0,46,0.00,,,0.01,WeatherCatV1.11B39,2013-04-05 20:02:00,
2013-04-05 16:07:00,56.7,36.7,30.03,SE,143,1.0,3.0,47,0.00,,,0.01,WeatherCatV1.11B39,2013-04-05 20:07:00,
2013-04-05 16:12:00,57.0,37.0,30.03,SE,131,1.0,5.0,47,0.00,,,0.01,WeatherCatV1.11B39,2013-04-05 20:12:00,
2013-04-05 16:17:00,57.4,36.2,30.03,North,1,2.0,7.0,45,0.00,,,0.01,WeatherCatV1.11B39,2013-04-05 20:17:00,
2013-04-05 16:22:00,57.1,36.0,30.03,SW,228,2.0,4.0,45,0.00,,,0.01,WeatherCatV1.11B39,2013-04-05 20:22:00,
2013-04-05 16:27:00,57.0,35.9,30.03,ENE,70,1.0,1.0,45,0.00,,,0.01,WeatherCatV1.11B39,2013-04-05 20:27:00,
2013-04-05 16:32:00,57.1,36.5,30.03,ENE,60,1.0,5.0,46,0.00,,,0.01,WeatherCatV1.11B39,2013-04-05 20:32:00,
2013-04-05 16:37:00,57.7,37.1,30.03,SSE,150,1.0,2.0,46,0.00,,,0.01,WeatherCatV1.11B39,2013-04-05 20:37:00,
2013-04-05 16:42:00,57.9,37.2,30.03,East,86,0.0,1.0,46,0.00,,,0.01,WeatherCatV1.11B39,2013-04-05 20:42:00,
2013-04-05 16:47:00,57.4,36.2,30.04,SE,126,0.0,2.0,45,0.00,,,0.01,WeatherCatV1.11B39,2013-04-05 20:47:00,
2013-04-05 16:52:00,56.7,36.2,30.03,ENE,77,1.0,5.0,46,0.00,,,0.01,WeatherCatV1.11B39,2013-04-05 20:52:00,
2013-04-05 16:57:00,56.4,36.4,30.03,ESE,111,0.0,7.0,47,0.00,,,0.01,WeatherCatV1.11B39,2013-04-05 20:57:00,
2013-04-05 17:02:00,56.3,35.8,30.03,ESE,117,1.0,3.0,46,0.00,,,0.01,WeatherCatV1.11B39,2013-04-05 21:02:00,
2013-04-05 17:07:00,56.0,36.1,30.04,SW,221,2.0,6.0,47,0.00,,,0.01,WeatherCatV1.11B39,2013-04-05 21:07:00,
2013-04-05 17:12:00,55.5,35.6,30.04,SE,124,0.0,2.0,47,0.00,,,0.01,WeatherCatV1.11B39,2013-04-05 21:12:00,
2013-04-05 17:17:00,54.9,35.1,30.04,SSE,148,0.0,4.0,47,0.00,,,0.01,WeatherCatV1.11B39,2013-04-05 21:17:00,
2013-04-05 17:22:00,55.3,36.5,30.04,ENE,73,0.0,2.0,49,0.00,,,0.01,WeatherCatV1.11B39,2013-04-05 21:22:00,
2013-04-05 17:27:00,55.7,36.3,30.04,NE,43,2.0,2.0,48,0.00,,,0.01,WeatherCatV1.11B39,2013-04-05 21:27:00,
2013-04-05 17:32:00,55.4,35.5,30.04,ESE,105,0.0,2.0,47,0.00,,,0.01,WeatherCatV1.11B39,2013-04-05 21:32:00,
2013-04-05 17:37:00,55.0,36.2,30.04,SE,145,1.0,2.0,49,0.00,,,0.01,WeatherCatV1.11B39,2013-04-05 21:37:00,
2013-04-05 17:42:00,54.9,36.6,30.04,West,278,0.0,3.0,50,0.00,,,0.01,WeatherCatV1.11B39,2013-04-05 21:42:00,
2013-04-05 17:47:00,54.7,35.9,30.04,SE,132,0.0,4.0,49,0.00,,,0.01,WeatherCatV1.11B39,2013-04-05 21:47:00,
2013-04-05 17:52:00,54.5,35.2,30.05,SE,127,0.0,7.0,48,0.00,,,0.01,WeatherCatV1.11B39,2013-04-05 21:52:00,
2013-04-05 17:57:00,54.4,36.2,30.04,SE,136,2.0,5.0,50,0.00,,,0.01,WeatherCatV1.11B39,2013-04-05 21:57:00,
2013-04-05 18:02:00,54.4,36.2,30.05,SE,143,2.0,3.0,50,0.00,,,0.01,WeatherCatV1.11B39,2013-04-05 22:02:00,
2013-04-05 18:07:00,54.4,36.2,30.04,ENE,65,2.0,6.0,50,0.00,,,0.01,WeatherCatV1.11B39,2013-04-05 22:07:00,
2013-04-05 18:12:00,54.3,35.6,30.05,SE,143,1.0,1.0,49,0.00,,,0.01,WeatherCatV1.11B39,2013-04-05 22:12:00,
2013-04-05 18:17:00,54.3,36.1,30.05,ENE,77,0.0,0.0,50,0.00,,,0.01,WeatherCatV1.11B39,2013-04-05 22:17:00,
2013-04-05 18:22:00,54.4,36.2,30.05,ESE,121,1.0,1.0,50,0.00,,,0.01,WeatherCatV1.11B39,2013-04-05 22:22:00,
2013-04-05 18:27:00,54.2,35.5,30.05,SE,140,0.0,6.0,49,0.00,,,0.01,WeatherCatV1.11B39,2013-04-05 22:27:00,
2013-04-05 18:32:00,54.0,35.8,30.05,WSW,248,5.0,6.0,50,0.00,,,0.01,WeatherCatV1.11B39,2013-04-05 22:32:00,
2013-04-05 18:37:00,53.9,35.7,30.05,WNW,303,3.0,6.0,50,0.00,,,0.01,WeatherCatV1.11B39,2013-04-05 22:37:00,
2013-04-05 18:42:00,54.0,35.3,30.05,ENE,65,1.0,1.0,49,0.00,,,0.01,WeatherCatV1.11B39,2013-04-05 22:42:00,
2013-04-05 18:47:00,54.0,34.8,30.05,East,85,0.0,5.0,48,0.00,,,0.01,WeatherCatV1.11B39,2013-04-05 22:47:00,
2013-04-05 18:52:00,53.8,35.1,30.05,ENE,62,2.0,4.0,49,0.00,,,0.01,WeatherCatV1.11B39,2013-04-05 22:52:00,
2013-04-05 18:57:00,53.4,35.2,30.05,ESE,117,0.0,2.0,50,0.00,,,0.01,WeatherCatV1.11B39,2013-04-05 22:57:00,
2013-04-05 19:02:00,53.3,36.1,30.05,ESE,120,0.0,1.0,52,0.00,,,0.01,WeatherCatV1.11B39,2013-04-05 23:02:00,
2013-04-05 19:07:00,53.2,35.5,30.06,SW,219,1.0,5.0,51,0.00,,,0.01,WeatherCatV1.11B39,2013-04-05 23:07:00,
2013-04-05 19:12:00,53.0,36.3,30.06,ESE,113,1.0,1.0,53,0.00,,,0.01,WeatherCatV1.11B39,2013-04-05 23:12:00,
2013-04-05 19:17:00,52.7,36.5,30.06,SE,140,0.0,1.0,54,0.00,,,0.01,WeatherCatV1.11B39,2013-04-05 23:17:00,
2013-04-05 19:22:00,52.6,36.9,30.06,East,86,0.0,2.0,55,0.00,,,0.01,WeatherCatV1.11B39,2013-04-05 23:22:00,
2013-04-05 19:27:00,52.4,36.7,30.06,SE,140,1.0,2.0,55,0.00,,,0.01,WeatherCatV1.11B39,2013-04-05 23:27:00,
2013-04-05 19:32:00,52.2,36.5,30.06,ESE,108,0.0,0.0,55,0.00,,,0.01,WeatherCatV1.11B39,2013-04-05 23:32:00,
2013-04-05 19:37:00,51.9,37.6,30.07,ESE,108,0.0,0.0,58,0.00,,,0.01,WeatherCatV1.11B39,2013-04-05 23:37:00,
2013-04-05 19:42:00,51.6,36.9,30.07,East,89,0.0,1.0,57,0.00,,,0.01,WeatherCatV1.11B39,2013-04-05 23:42:00,
2013-04-05 19:47:00,51.5,36.3,30.07,East,95,0.0,1.0,56,0.00,,,0.01,WeatherCatV1.11B39,2013-04-05 23:47:00,
2013-04-05 19:52:00,51.2,36.0,30.07,ESE,108,0.0,2.0,56,0.00,,,0.01,WeatherCatV1.11B39,2013-04-05 23:52:00,
2013-04-05 19:57:00,51.0,35.9,30.07,SE,132,0.0,1.0,56,0.00,,,0.01,WeatherCatV1.11B39,2013-04-05 23:57:00,
2013-04-05 20:02:00,50.8,36.6,30.08,ESE,104,0.0,0.0,58,0.00,,,0.01,WeatherCatV1.11B39,2013-04-06 00:02:00,
2013-04-05 20:07:00,50.3,37.0,30.08,ESE,104,0.0,0.0,60,0.00,,,0.01,WeatherCatV1.11B39,2013-04-06 00:07:00,
2013-04-05 20:12:00,49.7,36.0,30.08,WNW,283,0.0,3.0,59,0.00,,,0.01,WeatherCatV1.11B39,2013-04-06 00:12:00,
2013-04-05 20:17:00,49.6,36.3,30.08,NNW,330,0.0,1.0,60,0.00,,,0.01,WeatherCatV1.11B39,2013-04-06 00:17:00,
2013-04-05 20:22:00,49.2,35.5,30.08,NNW,331,0.0,0.0,59,0.00,,,0.01,WeatherCatV1.11B39,2013-04-06 00:22:00,
2013-04-05 20:27:00,49.0,36.1,30.08,NNW,331,0.0,0.0,61,0.00,,,0.01,WeatherCatV1.11B39,2013-04-06 00:27:00,
2013-04-05 20:32:00,48.9,36.0,30.08,NNW,345,0.0,2.0,61,0.00,,,0.01,WeatherCatV1.11B39,2013-04-06 00:32:00,
2013-04-05 20:37:00,48.8,36.4,30.08,NNW,345,0.0,1.0,62,0.00,,,0.01,WeatherCatV1.11B39,2013-04-06 00:37:00,
2013-04-05 20:42:00,48.3,35.9,30.08,NNW,346,0.0,0.0,62,0.00,,,0.01,WeatherCatV1.11B39,2013-04-06 00:42:00,
2013-04-05 20:47:00,48.1,36.1,30.08,NNW,345,0.0,0.0,63,0.00,,,0.01,WeatherCatV1.11B39,2013-04-06 00:47:00,
2013-04-05 20:52:00,47.8,36.2,30.08,NNW,345,0.0,0.0,64,0.00,,,0.01,WeatherCatV1.11B39,2013-04-06 00:52:00,
2013-04-05 20:57:00,47.7,35.7,30.09,NNW,345,0.0,0.0,63,0.00,,,0.01,WeatherCatV1.11B39,2013-04-06 00:57:00,
2013-04-05 21:02:00,47.5,35.9,30.08,NNW,346,0.0,0.0,64,0.00,,,0.01,WeatherCatV1.11B39,2013-04-06 01:02:00,
2013-04-05 21:07:00,47.2,36.4,30.09,NNW,345,0.0,0.0,66,0.00,,,0.01,WeatherCatV1.11B39,2013-04-06 01:07:00,
2013-04-05 21:12:00,46.7,36.3,30.09,NNW,345,0.0,0.0,67,0.00,,,0.01,WeatherCatV1.11B39,2013-04-06 01:12:00,
2013-04-05 21:17:00,46.2,36.2,30.09,NNW,346,0.0,0.0,68,0.00,,,0.01,WeatherCatV1.11B39,2013-04-06 01:17:00,
2013-04-05 21:22:00,45.9,36.3,30.09,NNW,346,0.0,0.0,69,0.00,,,0.01,WeatherCatV1.11B39,2013-04-06 01:22:00,
2013-04-05 21:27:00,45.8,36.2,30.10,NNW,346,0.0,0.0,69,0.00,,,0.01,WeatherCatV1.11B39,2013-04-06 01:27:00,
2013-04-05 21:32:00,45.7,36.5,30.10,NNW,346,0.0,0.0,70,0.00,,,0.01,WeatherCatV1.11B39,2013-04-06 01:32:00,
2013-04-05 21:37:00,45.6,36.4,30.10,NNW,346,0.0,0.0,70,0.00,,,0.01,WeatherCatV1.11B39,2013-04-06 01:37:00,
2013-04-05 21:42:00,45.4,36.2,30.10,NNW,346,0.0,0.0,70,0.00,,,0.01,WeatherCatV1.11B39,2013-04-06 01:42:00,
2013-04-05 21:47:00,45.4,36.2,30.10,NNW,346,0.0,0.0,70,0.00,,,0.01,WeatherCatV1.11B39,2013-04-06 01:47:00,
2013-04-05 21:52:00,45.3,36.1,30.11,NNW,346,0.0,0.0,70,0.00,,,0.01,WeatherCatV1.11B39,2013-04-06 01:52:00,
2013-04-05 21:57:00,45.3,36.1,30.11,NNW,346,0.0,0.0,70,0.00,,,0.01,WeatherCatV1.11B39,2013-04-06 01:57:00,
2013-04-05 22:02:00,45.3,36.5,30.11,NNW,345,0.0,0.0,71,0.00,,,0.01,WeatherCatV1.11B39,2013-04-06 02:02:00,
2013-04-05 22:07:00,45.2,36.4,30.11,NNW,346,0.0,0.0,71,0.00,,,0.01,WeatherCatV1.11B39,2013-04-06 02:07:00,
2013-04-05 22:12:00,45.0,36.2,30.11,NNW,345,0.0,0.0,71,0.00,,,0.01,WeatherCatV1.11B39,2013-04-06 02:12:00,
2013-04-05 22:17:00,44.8,36.3,30.11,NNW,346,0.0,0.0,72,0.00,,,0.01,WeatherCatV1.11B39,2013-04-06 02:17:00,
2013-04-05 22:22:00,44.5,36.0,30.11,NNW,346,0.0,0.0,72,0.00,,,0.01,WeatherCatV1.11B39,2013-04-06 02:22:00,
2013-04-05 22:27:00,44.3,36.5,30.11,NNW,346,0.0,0.0,74,0.00,,,0.01,WeatherCatV1.11B39,2013-04-06 02:27:00,
2013-04-05 22:32:00,43.9,36.5,30.11,NNW,346,0.0,0.0,75,0.00,,,0.01,WeatherCatV1.11B39,2013-04-06 02:32:00,
2013-04-05 22:37:00,43.4,36.3,30.11,NNW,346,0.0,0.0,76,0.00,,,0.01,WeatherCatV1.11B39,2013-04-06 02:37:00,
2013-04-05 22:42:00,43.1,36.4,30.11,NNW,346,0.0,0.0,77,0.00,,,0.01,WeatherCatV1.11B39,2013-04-06 02:42:00,
2013-04-05 22:47:00,43.0,36.3,30.11,NNW,346,0.0,0.0,77,0.00,,,0.01,WeatherCatV1.11B39,2013-04-06 02:47:00,
2013-04-05 22:52:00,42.9,36.2,30.11,NNW,346,0.0,0.0,77,0.00,,,0.01,WeatherCatV1.11B39,2013-04-06 02:52:00,
2013-04-05 22:57:00,42.9,35.9,30.11,NNW,346,0.0,0.0,76,0.00,,,0.01,WeatherCatV1.11B39,2013-04-06 02:57:00,
2013-04-05 23:02:00,42.9,36.2,30.11,NNW,346,0.0,0.0,77,0.00,,,0.01,WeatherCatV1.11B39,2013-04-06 03:02:00,
2013-04-05 23:07:00,42.7,35.7,30.11,NNW,346,0.0,0.0,76,0.00,,,0.01,WeatherCatV1.11B39,2013-04-06 03:07:00,
2013-04-05 23:12:00,42.7,36.0,30.11,NNW,346,0.0,0.0,77,0.00,,,0.01,WeatherCatV1.11B39,2013-04-06 03:12:00,
2013-04-05 23:17:00,42.9,35.9,30.11,NNW,346,0.0,0.0,76,0.00,,,0.01,WeatherCatV1.11B39,2013-04-06 03:17:00,
2013-04-05 23:22:00,42.8,35.8,30.12,East,79,0.0,0.0,76,0.00,,,0.01,WeatherCatV1.11B39,2013-04-06 03:22:00,
2013-04-05 23:27:00,42.4,36.4,30.12,East,79,0.0,0.0,79,0.00,,,0.01,WeatherCatV1.11B39,2013-04-06 03:27:00,
2013-04-05 23:32:00,41.9,35.9,30.11,East,79,0.0,0.0,79,0.00,,,0.01,WeatherCatV1.11B39,2013-04-06 03:32:00,
2013-04-05 23:37:00,41.4,35.7,30.12,East,79,0.0,0.0,80,0.00,,,0.01,WeatherCatV1.11B39,2013-04-06 03:37:00,
2013-04-05 23:42:00,41.0,35.6,30.11,East,79,0.0,0.0,81,0.00,,,0.01,WeatherCatV1.11B39,2013-04-06 03:42:00,
2013-04-05 23:47:00,40.7,35.6,30.12,East,79,0.0,0.0,82,0.00,,,0.01,WeatherCatV1.11B39,2013-04-06 03:47:00,
2013-04-05 23:52:00,40.3,35.2,30.12,East,79,0.0,0.0,82,0.00,,,0.01,WeatherCatV1.11B39,2013-04-06 03:52:00,
2013-04-05 23:57:00,39.9,35.2,30.12,East,79,0.0,0.0,83,0.00,,,0.01,WeatherCatV1.11B39,2013-04-06 03:57:00,